Location: Kumla
(59.1265°N, 15.1401°E)
Time: 20:54:04
(UTC+01:00)

A-11 Canister half - Pass Details

Date: 08 December 2023
Orbit: 1526 x 1682 km, 47.3° (Epoch: 21 February)

Event Time Altitude Azimuth Distance (km) Brightness Sun altitude
Rises 22:09:34 0° 265° (W) 4,935 11.9 -49.4°
Reaches altitude 10° 22:13:00 10° 258° (WSW) 3,940 11.3 -49.7°
Enters shadow 22:14:45 16° 253° (WSW) 3,468 10.9 -49.8°
